Date,TemperatureHighF,TemperatureAvgF,TemperatureLowF,DewpointHighF,DewpointAvgF,DewpointLowF,HumidityHigh,HumidityAvg,HumidityLow,PressureMaxIn,PressureMinIn,WindSpeedMaxMPH,WindSpeedAvgMPH,GustSpeedMaxMPH,PrecipitationSumIn
2013-12-1,76.0,59.6,47.7,47.0,42.0,37.4,81,55,27,30.19,30.07,7,0,7,0.00
2013-12-2,67.3,57.2,47.0,55.4,47.7,40.7,100,74,45,30.10,29.87,9,0,9,0.00
2013-12-3,58.7,49.7,43.5,54.4,46.9,31.6,100,91,62,29.88,29.77,15,0,15,0.01
2013-12-4,54.4,43.4,31.6,35.2,28.0,19.5,77,56,31,29.97,29.83,2,0,4,0.00
2013-12-5,52.9,41.3,31.3,32.5,25.0,18.7,72,53,28,30.08,29.96,2,0,5,0.00
2013-12-6,52.6,40.5,27.8,41.7,31.0,19.7,98,70,43,30.13,30.01,2,0,5,0.11
2013-12-7,53.9,47.5,39.1,51.4,40.0,28.9,100,77,53,30.14,29.88,3,1,5,0.13
2013-12-8,48.5,40.2,34.6,34.1,29.1,26.1,77,65,47,30.18,30.08,2,0,4,0.00
2013-12-9,55.0,43.3,36.5,28.7,26.0,20.9,70,52,29,30.26,30.15,7,2,12,0.00
2013-12-10,62.9,47.3,37.2,34.6,22.2,15.9,52,38,18,30.25,30.05,3,0,4,0.00
2013-12-11,61.8,46.6,35.6,47.6,35.5,17.9,100,69,25,30.11,30.03,2,0,4,0.00
2013-12-12,59.3,42.6,29.7,50.1,39.7,29.4,100,91,42,30.16,30.08,2,0,4,0.00
2013-12-13,59.2,43.5,30.9,49.7,37.6,30.7,100,82,58,30.20,30.12,3,0,5,0.01
2013-12-14,68.1,50.8,36.6,44.0,33.7,27.6,79,55,23,30.23,30.16,3,0,4,0.00
2013-12-15,75.1,58.7,41.8,37.5,31.2,24.3,68,38,21,30.20,30.05,3,0,6,0.00
2013-12-16,78.3,64.5,52.2,42.4,30.1,23.9,46,29,15,30.06,29.98,3,1,5,0.00
2013-12-17,77.5,58.2,47.0,51.2,37.6,26.7,92,51,18,30.04,29.93,1,0,2,0.00
2013-12-18,56.6,52.6,51.1,51.5,49.8,46.9,96,90,81,29.94,29.76,1,0,4,0.00
2013-12-19,58.5,51.7,43.5,49.7,42.3,36.0,91,71,44,29.81,29.64,3,1,7,0.00
2013-12-20,58.8,47.5,36.8,42.4,33.0,23.6,78,59,28,29.92,29.80,2,0,5,0.00
2013-12-21,59.6,44.3,33.4,48.0,37.7,29.7,90,78,57,30.00,29.88,2,0,6,0.00
2013-12-22,57.6,45.4,35.5,51.1,42.6,32.4,100,90,64,30.21,30.00,2,0,4,0.00
2013-12-23,63.2,45.4,35.0,53.3,43.4,35.0,100,94,58,30.28,30.20,4,0,5,0.00
2013-12-24,73.0,57.6,40.1,43.5,38.8,36.0,100,55,28,30.20,30.04,2,0,5,0.01
2013-12-25,76.8,59.7,48.5,40.6,35.5,27.8,59,42,23,30.14,30.07,2,0,4,0.00
2013-12-26,78.6,65.0,54.5,33.2,23.8,18.0,36,22,14,30.10,30.01,7,1,10,0.00
2013-12-27,76.3,57.6,42.8,45.2,32.9,18.0,73,42,14,30.09,29.99,4,0,6,0.00
2013-12-28,62.7,52.1,40.1,52.2,41.9,28.7,96,71,38,29.99,29.88,3,0,5,0.00
2013-12-29,75.4,52.9,39.9,39.7,34.0,27.1,79,53,17,30.09,29.95,3,0,5,0.00
2013-12-30,67.6,50.3,37.8,36.6,29.1,23.3,70,47,19,30.17,30.09,1,0,2,0.00
2013-12-31,60.9,47.0,37.0,50.5,37.5,21.9,100,71,42,30.16,30.04,2,0,5,0.00